Weather reports worldwide

Advertisment
Torino/Caselle, Italy (16059): temperature & dewpoint: 14.08.2019 06:00:00 - 20.08.2019 06:00:00 (CEST)Torino/Caselle, Italy (16059): wind speed: 14.08.2019 06:00:00 - 20.08.2019 06:00:00 (CEST)Torino/Caselle, Italy (16059): wind direction: 14.08.2019 06:00:00 - 20.08.2019 06:00:00 (CEST)Torino/Caselle, Italy (16059): reduced air pressure: 14.08.2019 06:00:00 - 20.08.2019 06:00:00 (CEST)Torino/Caselle, Italy (16059): visibility: 14.08.2019 06:00:00 - 20.08.2019 06:00:00 (CEST)Torino/Caselle, Italy (16059): precipitation: 14.08.2019 06:00:00 - 20.08.2019 06:00:00 (CEST)
Date & Time tt [°C] td [°C] ff [km/h] ff [kn] dd ppp [hPa] vv [km] rr [mm]
20.08.2019 06:00:00 21,0 21,0 8 4 E - 10 -
20.08.2019 05:00:00 21,9 20,5 2 1 - 1018,1 10 0,0
20.08.2019 04:00:00 22,0 21,0 5 3 ENE - 10 -
20.08.2019 03:00:00 22,0 21,0 2 1 - - 10 -
20.08.2019 02:00:00 22,6 21,0 4 2 - 1018,0 10 -
20.08.2019 01:00:00 23,0 21,0 4 2 - - 10 -
20.08.2019 00:00:00 23,0 20,0 5 3 NNW - 10 -
19.08.2019 23:00:00 23,0 21,0 8 4 N - 10 -
19.08.2019 22:00:00 24,0 21,0 5 3 W - 10 -
19.08.2019 21:00:00 23,0 21,0 8 4 NNW - 10 -
19.08.2019 20:00:00 23,0 20,0 13 7 NW - 10 -
19.08.2019 19:00:00 23,0 20,0 18 10 NNE - 10 -
19.08.2019 18:00:00 27,0 19,0 11 6 ESE - 8 -
19.08.2019 17:00:00 27,9 18,1 9 5 E 1016,8 10 0,0
19.08.2019 16:00:00 28,0 18,0 9 5 E - 10 -
19.08.2019 15:00:00 28,0 18,0 8 4 - - 10 -
19.08.2019 14:00:00 27,4 18,5 9 5 ENE 1017,6 10 -
19.08.2019 13:00:00 27,0 19,0 9 5 - - 10 -
19.08.2019 12:00:00 26,0 19,0 5 3 - - 10 -
19.08.2019 11:00:00 24,3 19,8 5 3 ENE 1017,7 10 0,0
19.08.2019 10:00:00 - - - - - - - -
19.08.2019 09:00:00 22,0 19,0 9 5 W - 10 -
19.08.2019 08:00:00 22,1 18,7 5 3 NW 1016,5 10 -
19.08.2019 07:00:00 20,0 18,0 2 1 WSW - 10 -
19.08.2019 06:00:00 20,0 18,0 4 2 - - 10 -
19.08.2019 05:00:00 20,1 18,3 5 3 SSW 1015,8 10 0,0
19.08.2019 04:00:00 - - - - - - - -
19.08.2019 03:00:00 22,0 19,0 8 4 NW - 10 -
19.08.2019 02:00:00 22,7 19,1 8 4 WNW 1016,5 10 -
19.08.2019 01:00:00 23,0 19,0 5 3 W - 10 -
19.08.2019 00:00:00 23,0 19,0 2 1 - - 10 -
18.08.2019 23:00:00 24,0 18,0 2 1 - 1016,7 10 0,0
18.08.2019 22:00:00 25,0 18,0 5 3 N - 10 -
18.08.2019 21:00:00 25,0 18,0 4 2 ENE - 10 -
18.08.2019 20:00:00 25,9 18,2 5 3 E 1015,7 10 -
18.08.2019 19:00:00 27,0 17,0 8 4 E - 10 -
18.08.2019 18:00:00 27,0 16,0 4 2 - - 10 -
18.08.2019 17:00:00 27,5 16,2 4 2 - 1016,0 10 0,0
18.08.2019 16:00:00 28,0 16,0 8 4 SE - 10 -
18.08.2019 15:00:00 28,0 17,0 5 3 - - 10 -
18.08.2019 14:00:00 27,3 16,4 9 5 ENE 1016,8 10 -
18.08.2019 13:00:00 27,0 17,0 8 4 E - 10 -
18.08.2019 12:00:00 26,0 17,0 8 4 E - 10 -
18.08.2019 11:00:00 24,9 16,7 9 5 E 1017,2 10 0,0
18.08.2019 10:00:00 24,0 17,0 4 2 - - 10 -
18.08.2019 09:00:00 22,0 17,0 4 2 E - 10 -
18.08.2019 08:00:00 21,2 18,5 4 2 NNW 1016,9 10 -
18.08.2019 07:00:00 20,0 17,0 4 2 N - 10 -
18.08.2019 06:00:00 21,0 17,0 2 1 - - 10 -
18.08.2019 05:00:00 20,8 17,5 4 2 - 1016,5 10 0,0
18.08.2019 04:00:00 21,0 18,0 4 2 - - 10 -
18.08.2019 03:00:00 21,0 19,0 5 3 SE - 10 -
18.08.2019 02:00:00 22,3 17,2 5 3 NNW 1017,0 10 -
18.08.2019 01:00:00 23,0 17,0 5 3 NW - 10 -
18.08.2019 00:00:00 23,0 17,0 8 4 NW - 10 -
17.08.2019 23:00:00 22,1 17,3 4 2 - 1016,9 10 0,0
17.08.2019 22:00:00 23,0 17,0 8 4 N - 10 -
17.08.2019 21:00:00 24,0 17,0 8 4 NNE - 10 -
17.08.2019 20:00:00 25,1 17,1 8 4 NNE 1016,4 10 -
17.08.2019 19:00:00 26,0 16,0 8 4 NE - 10 -
17.08.2019 18:00:00 26,0 16,0 8 4 NNE - 10 -
17.08.2019 17:00:00 26,7 16,1 8 4 E 1016,7 10 0,0
17.08.2019 16:00:00 27,0 16,0 5 3 ENE - 10 -
17.08.2019 15:00:00 26,0 16,0 8 4 E - 10 -
17.08.2019 14:00:00 26,3 16,0 5 3 - 1017,7 10 -
17.08.2019 13:00:00 25,0 15,0 5 3 ENE - 10 -
17.08.2019 12:00:00 24,0 16,0 5 3 E - 10 -
17.08.2019 11:00:00 23,1 14,9 8 4 NE 1018,6 10 0,0
17.08.2019 10:00:00 23,0 14,0 9 5 ENE - 10 -
17.08.2019 09:00:00 22,0 14,0 5 3 NNE - 10 -
17.08.2019 08:00:00 20,3 15,7 9 5 NNW 1018,0 10 -
17.08.2019 07:00:00 18,0 16,0 4 2 - - 10 -
17.08.2019 06:00:00 18,0 16,0 2 1 - - 10 -
17.08.2019 05:00:00 19,0 15,7 4 2 NNW 1017,5 10 0,0
17.08.2019 04:00:00 20,0 16,0 2 1 - - 10 -
17.08.2019 03:00:00 21,0 15,0 4 2 W - 10 -
17.08.2019 02:00:00 20,2 15,7 5 3 SE 1018,0 10 -
17.08.2019 01:00:00 22,0 15,0 13 7 NW - 10 -
17.08.2019 00:00:00 22,0 15,0 11 6 NNW - 10 -
16.08.2019 23:00:00 20,2 15,1 8 4 NW 1017,6 10 0,0
16.08.2019 22:00:00 22,0 15,0 9 5 NNW - 10 -
16.08.2019 21:00:00 23,0 14,0 5 3 NNE - 10 -
16.08.2019 20:00:00 24,4 14,2 8 4 NE 1016,3 10 -
16.08.2019 19:00:00 26,0 14,0 8 4 NE - 10 -
16.08.2019 18:00:00 26,0 14,0 5 3 - - 10 -
16.08.2019 17:00:00 26,6 13,7 5 3 SE 1016,6 10 0,0
16.08.2019 16:00:00 26,0 13,0 13 7 E - 10 -
16.08.2019 15:00:00 26,0 14,0 8 4 - - 10 -
16.08.2019 14:00:00 25,9 13,8 13 7 ENE 1017,7 10 -
16.08.2019 13:00:00 25,0 16,0 11 6 ENE - 10 -
16.08.2019 12:00:00 23,0 16,0 9 5 ENE - 10 -
16.08.2019 11:00:00 22,7 16,0 13 7 ENE 1018,9 10 0,0
16.08.2019 10:00:00 21,0 15,0 11 6 ENE - 10 -
16.08.2019 09:00:00 20,0 14,0 11 6 NE - 10 -
16.08.2019 08:00:00 17,6 14,4 4 2 - 1018,2 10 -
16.08.2019 07:00:00 16,0 13,0 5 3 - - 10 -
16.08.2019 06:00:00 18,0 12,0 15 8 WNW - 10 -
16.08.2019 05:00:00 18,3 12,2 9 5 NW 1016,6 10 0,0
16.08.2019 04:00:00 18,0 13,0 11 6 NNW - 10 -
16.08.2019 03:00:00 18,0 14,0 8 4 N - 10 -
16.08.2019 02:00:00 17,9 14,6 5 3 NNE 1015,4 10 -
16.08.2019 01:00:00 18,0 15,0 5 3 E - 10 -
16.08.2019 00:00:00 19,0 15,0 8 4 NW - 10 -
15.08.2019 23:00:00 20,2 15,2 8 4 NNW 1014,7 10 0,0
15.08.2019 22:00:00 21,0 16,0 5 3 N - 10 -
15.08.2019 21:00:00 23,0 16,0 8 4 N - 10 -
15.08.2019 20:00:00 24,3 16,9 8 4 ENE 1014,5 10 -
15.08.2019 19:00:00 26,0 15,0 5 3 ENE - 10 -
15.08.2019 18:00:00 26,0 15,0 9 5 E - 10 -
15.08.2019 17:00:00 26,4 14,3 8 4 ENE 1014,9 10 0,0
15.08.2019 16:00:00 27,0 13,0 8 4 SSE - 10 -
15.08.2019 15:00:00 25,0 15,0 9 5 ENE - 10 -
15.08.2019 14:00:00 24,8 15,6 11 6 ENE 1016,4 10 -
15.08.2019 13:00:00 23,0 15,0 11 6 E - 10 -
15.08.2019 12:00:00 23,0 15,0 11 6 E - 10 -
15.08.2019 11:00:00 22,1 14,2 9 5 NE 1017,8 10 0,0
15.08.2019 10:00:00 22,0 13,0 11 6 NE - 10 -
15.08.2019 09:00:00 20,0 12,0 9 5 NNW - 10 -
15.08.2019 08:00:00 19,3 11,5 8 4 NNW 1017,7 10 -
15.08.2019 07:00:00 18,0 11,0 15 8 WNW - 10 -
15.08.2019 06:00:00 18,0 11,0 11 6 WNW - 10 -
15.08.2019 05:00:00 17,8 11,1 5 3 NW 1017,6 10 0,0
15.08.2019 04:00:00 16,0 13,0 9 5 N - 10 -
15.08.2019 03:00:00 17,0 11,0 4 2 - - 10 -
15.08.2019 02:00:00 17,3 12,2 4 2 - 1017,3 10 -
15.08.2019 01:00:00 17,0 13,0 4 2 - - 10 -
15.08.2019 00:00:00 21,0 11,0 11 6 NW - 10 -
14.08.2019 23:00:00 20,7 11,5 11 6 NW 1016,4 10 0,0
14.08.2019 22:00:00 21,0 12,0 9 5 NNW - 10 -
14.08.2019 21:00:00 23,0 12,0 4 2 ENE - 10 -
14.08.2019 20:00:00 24,6 12,2 8 4 ENE 1014,9 10 -
14.08.2019 19:00:00 27,0 10,0 5 3 ESE - 10 -
14.08.2019 18:00:00 27,0 9,0 5 3 - - 10 -
14.08.2019 17:00:00 26,8 9,9 4 2 - 1015,2 10 0,0
14.08.2019 16:00:00 27,0 10,0 8 4 - - 10 -
14.08.2019 15:00:00 26,0 9,0 11 6 E - 10 -
14.08.2019 14:00:00 25,7 8,0 15 8 E 1016,3 10 -
14.08.2019 13:00:00 25,0 8,0 8 4 - - 10 -
14.08.2019 12:00:00 24,0 11,0 11 6 S - 10 -
14.08.2019 11:00:00 23,6 10,6 15 8 WSW 1016,5 10 0,0
14.08.2019 10:00:00 22,0 12,0 5 3 ESE - 10 -
14.08.2019 09:00:00 20,0 11,0 4 2 WNW - 10 -
14.08.2019 08:00:00 17,5 10,0 8 4 W 1014,3 10 -
14.08.2019 07:00:00 16,0 10,0 5 3 SW - 10 -
14.08.2019 06:00:00 16,0 10,0 5 3 N - 10 -

tt = temperature
td = dewpoint
ff = wind speed
dd = wind direction
ppp = reduced air pressure
vv = visibility
rr = precipitation

Next stations